This is the latest recevied weather packets stored in our database for station/object W8KVG. If no packets are shown the sender has not sent any weather packets the latest 10 day(s).
| Time | Temp. | Humidity | Pressure | Rain* | Wind** | Luminosity | Snow |
|---|---|---|---|---|---|---|---|
| 1777558488 | 5.56° C | 97% | 1011.3 hPa | 0 mm | - | 33 W/m² | - |
| 1777558184 | 5.56° C | 97% | 1011 hPa | 0 mm | - | 43 W/m² | - |
| 1777557880 | 5.56° C | 98% | 1011.2 hPa | 0 mm | - | 43 W/m² | - |
| 1777557578 | 5.56° C | 98% | 1011.1 hPa | 0 mm | - | 33 W/m² | - |
| 1777557274 | 5.56° C | 98% | 1011.1 hPa | 0 mm | - | 35 W/m² | - |
| 1777556970 | 6.11° C | 98% | 1010.9 hPa | 0 mm | - | 34 W/m² | - |
| 1777556666 | 5.56° C | 97% | 1010.8 hPa | 0 mm | - | 45 W/m² | - |
| 1777556362 | 6.11° C | 98% | 1010.7 hPa | 0 mm | - | 46 W/m² | - |
| 1777556057 | 6.11° C | 97% | 1010.7 hPa | 0 mm | - | 48 W/m² | - |
| 1777555757 | 6.11° C | 97% | 1010.8 hPa | 0 mm | - | 34 W/m² | - |
| 1777555454 | 6.11° C | 98% | 1010.5 hPa | 0 mm | - | 32 W/m² | - |
| 1777555150 | 6.11° C | 98% | 1010.5 hPa | 0 mm | - | 58 W/m² | - |
| 1777554847 | 6.11° C | 98% | 1010.4 hPa | 0 mm | - | 49 W/m² | - |
| 1777554544 | 5.56° C | 98% | 1010.4 hPa | 0 mm | - | 44 W/m² | - |
| 1777554241 | 6.11° C | 98% | 1010.5 hPa | 0 mm | - | 35 W/m² | - |
| 1777553938 | 6.11° C | 98% | 1010.4 hPa | 0 mm | - | 34 W/m² | - |
| 1777553634 | 6.11° C | 99% | 1010.2 hPa | 0 mm | - | 41 W/m² | - |
| 1777553330 | 6.11° C | 99% | 1010.4 hPa | 0 mm | - | 26 W/m² | - |
| 1777553027 | 6.11° C | 99% | 1010.3 hPa | 0 mm | - | 24 W/m² | - |
| 1777552721 | 6.67° C | 99% | 1010.2 hPa | 0 mm | - | 41 W/m² | - |
| 1777552418 | 6.67° C | 99% | 1010.1 hPa | 0 mm | - | 38 W/m² | - |
| 1777552114 | 6.67° C | 99% | 1010 hPa | 0 mm | - | 17 W/m² | - |
| 1777551812 | 6.67° C | 99% | 1010 hPa | 0 mm | - | 22 W/m² | - |
| 1777551510 | 6.67° C | 99% | 1009.9 hPa | 0 mm | - | 14 W/m² | - |
| 1777551206 | 7.22° C | 99% | 1009.7 hPa | 0.51 mm | - | 13 W/m² | - |
* Rain latest hour (hover to see other rain measurements)
** Current wind speed in m/s (hover to see current wind gust speed)